sat.trackr.live / text

‹ back to catalog

INTELSAT 17 (IS-17)

NORAD 37238 · 2010-065B

PAYLOAD ACTIVE UNKNOWN

§ Identity

Operator
Country
ITSO
Launch date
2010-11-26
Launch site
FRGUI
Launch vehicle
Mass (kg)
RCS (m²)
6.31

Purposes: comms

External: N2YO · Heavens-Above · Gunter

§ Orbital elements

Epoch: 2026-09-19T12:09:12.125376Z

Period
1,436.08 min
Inclination
0.0211°
Eccentricity
0.0002617
Mean motion
1.00273005 rev/d
Perigee alt
35,775.2 km
Apogee alt
35,797.3 km
Semi-major
42,164.4 km
B*
0.0000e+0
RAAN
118.2095°
Arg perigee
71.2370°
Mean anomaly
57.2848°
Rev number
5,419

§ Raw data

INTELSAT 17 (IS-17)1 37238U 10065B   26262.50639034 -.00000006  00000+0  00000+0 0  99982 37238   0.0211 118.2095 0002617  71.2370  57.2848  1.00273005 54192

JSON: /api/v1/satellites/37238 · /tle

For live sub-satellite position, see the globe view (requires WebGL).

§ Visibility from observer

Set your observer location to see the next 7 days of passes ≥ 10°. The values pass through the URL so the page stays shareable.

No JS? Fill the form by hand. The geolocation button needs JavaScript.